This is the latest recevied weather packets stored in our database for station/object KD5FHA. If no packets are shown the sender has not sent any weather packets the latest 10 day(s).
| Time | Temp. | Humidity | Pressure | Rain* | Wind** | Luminosity | Snow |
|---|---|---|---|---|---|---|---|
| 1777927469 | 27.22° C | 58% | 1009.3 hPa | 0 mm | - | 740 W/m² | - |
| 1777927168 | 26.67° C | 58% | 1009.5 hPa | 0 mm | - | 833 W/m² | - |
| 1777926865 | 27.22° C | 59% | 1009.6 hPa | 0 mm | - | 790 W/m² | - |
| 1777926561 | 27.22° C | 58% | 1009.5 hPa | 0 mm | - | 802 W/m² | - |
| 1777926258 | 27.78° C | 58% | 1009.4 hPa | 0 mm | - | 825 W/m² | - |
| 1777925954 | 26.67° C | 58% | 1010 hPa | 0 mm | - | 828 W/m² | - |
| 1777925652 | 26.67° C | 59% | 1010.1 hPa | 0 mm | - | 797 W/m² | - |
| 1777925349 | 26.11° C | 59% | 1010.3 hPa | 0 mm | - | 476 W/m² | - |
| 1777925046 | 26.11° C | 60% | 1010.2 hPa | 0 mm | - | 450 W/m² | - |
| 1777924742 | 26.67° C | 59% | 1010.4 hPa | 0 mm | - | 938 W/m² | - |
| 1777924438 | 26.67° C | 59% | 1010.5 hPa | 0 mm | - | 823 W/m² | - |
| 1777924135 | 26.67° C | 60% | 1010.6 hPa | 0 mm | - | 893 W/m² | - |
| 1777923831 | 26.67° C | 59% | 1010.7 hPa | 0 mm | - | 768 W/m² | - |
| 1777923527 | 26.11° C | 60% | 1010.6 hPa | 0 mm | - | 919 W/m² | - |
| 1777923224 | 26.11° C | 59% | 1011.1 hPa | 0 mm | - | 889 W/m² | - |
| 1777922923 | 26.11° C | 60% | 1011 hPa | 0 mm | - | 566 W/m² | - |
| 1777922620 | 26.11° C | 60% | 1011 hPa | 0 mm | - | 790 W/m² | - |
| 1777922318 | 26.11° C | 59% | 1010.9 hPa | 0 mm | - | 869 W/m² | - |
| 1777922016 | 26.11° C | 60% | 1011.1 hPa | 0 mm | - | 885 W/m² | - |
| 1777921711 | 25.56° C | 60% | 1011.1 hPa | 0 mm | - | 838 W/m² | - |
| 1777921407 | 25.56° C | 60% | 1011.1 hPa | 0 mm | - | 944 W/m² | - |
| 1777921104 | 25.56° C | 59% | 1011.4 hPa | 0 mm | - | 499 W/m² | - |
| 1777920801 | 26.11° C | 59% | 1011.5 hPa | 0 mm | - | 985 W/m² | - |
| 1777920497 | 25.56° C | 59% | 1011.3 hPa | 0 mm | - | 955 W/m² | - |
| 1777920193 | 25.56° C | 60% | 1011.4 hPa | 0 mm | - | 954 W/m² | - |
* Rain latest hour (hover to see other rain measurements)
** Current wind speed in m/s (hover to see current wind gust speed)